Location: Gleizolles
(44.4833°N, 6.7667°E)
Time: 11:49:30
(UTC+00:00)

Vanguard 2 - Pass Details

Date: 28 June 2024
Orbit: 552 x 2913 km, 32.9° (Epoch: 17 July)

Event Time Altitude Azimuth Distance (km) Brightness Sun altitude
Exits shadow 03:00:51 - 215° (SW) 4,328 10.7 -7.7°
Reaches altitude 10° 03:01:33 10° 213° (SSW) 4,187 10.6 -7.6°
Maximum altitude 03:12:16 38° 151° (SSE) 3,309 10.6 -6.2°
Drops below altitude 10° 03:26:50 10° 92° (E) 5,679 12.8 -4.3°
Sets 03:31:55 0° 86° (E) 6,759 13.4 -3.5°
